Temperature
21 21 20 20 19 19 20 21 22 21 21 21 21 21 20 19 19 19 19 19 19 19 19 19 19 18 19 18 18 19 18 18 18 18 18 18 18 18 18 18 18 18 18 18 18 18 18 18 18
22 21 21 20 19 19 21 22 22 22 21 21 21 20 19 19 19 19 19 19 19 19 19 19 19 19 18 18 18 19 19 18 18 18 18 18 18 18 18 18 18 18 18 18 18 18 18 18 18
21 21 21 19 20 20 21 22 22 22 22 22 21 20 20 19 19 19 19 19 19 19 19 19 19 18 18 18 18 18 18 18 18 18 18 18 18 18 18 18 18 18 18 18 18 18 18 18 18
22 21 21 20 21 22 22 22 22 22 22 22 21 20 19 19 19 19 19 19 19 19 19 19 19 19 18 18 18 18 18 18 18 18 18 18 18 18 18 18 18 18 18 18 18 18 18 18 18
22 21 20 20 22 23 22 23 23 22 22 21 20 19 19 19 19 19 19 19 19 19 19 19 19 19 19 18 18 18 18 18 18 18 18 18 18 18 18 18 18 18 18 18 18 18 18 18 18
22 20 20 21 22 23 23 23 22 22 21 21 20 19 19 19 19 19 19 19 19 19 19 19 18 19 19 18 18 18 18 18 18 18 18 18 18 18 18 18 18 18 18 18 18 18 18 18 18
22 20 21 22 22 23 23 23 22 21 21 21 20 19 19 19 19 19 19 19 19 19 19 19 18 18 18 18 18 18 18 18 18 18 18 18 18 18 18 18 18 18 18 18 18 18 18 18 18
23 20 22 22 22 23 23 23 23 22 22 21 21 19 19 19 19 19 19 19 19 19 19 19 19 18 18 18 18 18 18 18 18 18 18 18 18 18 18 18 18 18 18 18 18 17 18 18 17
23 21 21 22 23 23 23 23 23 22 22 21 21 21 20 19 19 19 19 19 19 19 19 19 19 19 18 18 18 18 18 18 18 18 18 18 18 18 18 18 18 18 18 18 18 18 17 18 17
23 21 22 23 23 23 23 23 23 22 21 21 20 20 20 19 19 19 19 19 19 19 19 19 19 19 19 18 18 18 18 18 18 18 18 18 18 18 18 18 18 18 18 18 18 18 17 18 17
22 22 23 24 25 24 24 23 23 22 21 21 20 20 20 19 19 19 19 19 19 19 19 19 19 18 18 18 18 18 18 18 18 18 18 18 18 18 18 18 18 18 18 18 18 17 17 17 17
23 24 25 25 25 24 24 23 22 22 22 22 21 21 20 20 20 20 19 19 19 19 19 19 19 19 18 18 18 18 18 18 18 18 18 18 18 18 18 18 17 17 17 18 17 17 17 17 17
25 25 25 25 25 25 24 23 23 22 22 22 21 21 20 20 20 20 20 19 19 19 19 19 19 19 18 18 18 18 18 18 18 18 18 18 18 18 18 18 18 17 17 17 17 17 17 17 17
25 25 24 25 25 24 23 23 22 21 22 21 21 20 20 20 20 20 19 19 19 19 19 19 19 19 18 18 18 18 18 18 18 18 18 18 18 18 18 18 18 17 17 17 17 17 17 17 17
26 24 24 24 25 24 24 23 22 22 21 21 21 20 20 20 20 20 20 20 20 19 19 19 19 19 18 18 18 18 18 18 18 18 18 18 18 18 18 18 17 17 17 17 17 17 17 17 17
24 24 23 25 24 24 24 22 22 22 21 21 20 20 20 20 20 20 20 20 20 20 19 19 19 19 19 19 19 18 18 18 18 18 18 18 17 18 18 18 18 17 17 17 17 17 17 17 17
23 23 24 24 25 24 23 22 22 22 21 21 21 20 20 20 20 20 20 20 20 20 20 19 19 19 19 19 19 18 18 18 18 18 18 18 18 18 18 18 18 17 17 17 17 17 17 17 17
24 24 24 24 24 24 23 22 22 22 21 21 21 21 21 21 21 21 21 20 20 20 20 19 19 19 19 19 19 18 18 18 18 18 18 18 18 18 18 18 18 18 17 17 17 17 17 17 17
25 24 24 24 24 23 23 22 22 22 21 21 21 21 21 21 21 21 21 20 20 20 20 20 19 19 19 19 19 19 18 18 18 18 18 18 18 18 18 18 18 18 18 18 17 17 17 17 17
25 24 24 24 24 24 22 22 22 22 21 21 21 21 22 22 21 21 21 20 20 20 20 20 20 19 19 19 19 19 19 18 18 18 18 18 18 18 18 18 18 18 18 18 17 17 17 17 17
25 24 24 24 24 23 23 22 22 22 22 22 22 22 22 22 22 21 21 21 20 20 20 20 20 20 19 19 19 19 19 18 18 18 18 18 18 18 18 18 17 17 17 17 17 17 17 17 17
24 25 25 24 23 22 23 22 22 21 21 21 21 21 21 22 22 22 21 21 21 21 20 20 20 20 19 19 19 19 19 19 19 18 18 18 18 18 18 17 17 17 17 17 17 17 17 17 17
25 25 24 24 22 21 21 21 21 20 20 21 21 22 22 22 22 22 22 21 21 21 21 20 20 20 19 19 19 19 19 19 18 18 18 18 18 18 18 18 17 17 17 17 17 17 17 17 17
25 23 22 20 20 21 22 21 21 20 20 21 22 22 22 22 22 22 22 22 21 21 21 20 20 20 20 19 19 19 19 19 18 18 18 18 18 18 17 17 17 17 17 17 17 17 17 17 17
24 22 21 22 20 21 21 21 21 21 21 22 22 22 22 22 22 22 22 22 21 21 21 20 20 20 20 19 19 19 19 19 19 18 18 18 18 18 17 17 17 17 17 17 17 17 17 17 17
23 22 22 22 21 20 21 21 21 22 22 23 23 23 23 22 22 22 22 22 22 21 21 21 20 20 20 20 19 19 19 19 18 18 18 18 18 18 17 17 17 17 17 17 17 17 17 17 16
23 21 21 20 20 20 20 20 21 22 21 21 22 22 22 22 23 23 23 22 22 21 21 21 21 20 20 20 19 19 19 19 18 18 18 18 18 17 17 17 17 17 17 17 17 17 17 17 16
23 20 18 19 20 21 22 21 21 22 21 21 20 21 22 22 22 22 22 22 22 22 21 21 20 20 20 20 20 19 19 19 18 18 18 18 18 17 17 17 17 17 17 17 17 16 16 17 16
22 21 18 17 19 20 21 21 21 21 21 20 20 21 21 22 22 22 22 22 22 21 21 21 20 20 20 20 20 19 19 19 19 18 18 18 18 17 17 17 17 17 17 16 16 16 16 16 16
23 21 19 21 20 18 19 21 22 20 20 20 20 21 21 22 22 22 22 22 22 22 21 21 20 20 20 20 20 19 19 19 19 18 18 18 18 17 17 17 17 16 16 16 16 16 16 16 16
Wind_Speed
11 8 3 1 4 5 3 3 1 3 3 3 5 6 6 4 2 2 0 3 3 3 3 5 6 8 10 11 11 12 13 14 14 15 15 15 15 15 15 14 14 14 13 14 14 14 14 15 16
7 5 1 2 5 4 3 2 3 3 4 5 6 6 6 5 3 4 2 3 4 3 4 5 7 9 10 11 11 12 12 12 13 13 13 14 14 14 14 13 13 12 12 12 13 13 13 15 15
6 3 2 4 3 2 1 1 5 5 4 3 4 5 4 3 3 3 3 5 5 4 5 5 8 10 11 11 11 11 11 11 11 12 12 12 13 12 12 12 12 11 11 11 12 13 13 14 14
3 2 3 5 3 1 3 4 5 6 4 5 5 5 4 3 3 4 6 7 5 3 4 6 9 10 10 11 10 10 10 10 10 10 11 11 11 11 11 11 10 10 10 11 11 12 12 13 13
1 3 5 4 3 2 3 5 3 4 3 5 5 5 4 4 6 9 8 6 5 4 4 6 8 9 9 10 10 9 9 9 9 9 10 10 10 10 10 10 9 9 9 10 10 11 11 11 12
3 4 5 2 3 3 3 3 5 7 6 5 5 4 3 3 6 7 7 6 5 4 3 4 7 7 7 8 8 9 8 9 8 8 9 9 9 9 9 9 8 9 9 9 9 9 10 10 10
3 4 2 2 2 2 3 3 4 6 6 4 4 5 2 2 4 6 6 6 5 4 3 3 4 5 6 6 6 7 7 7 7 8 8 8 8 8 8 7 8 8 7 7 8 8 8 8 8
3 4 2 1 3 2 4 3 3 5 5 5 4 5 4 4 6 7 7 6 5 4 3 3 3 4 4 4 5 5 6 7 7 7 7 7 7 7 6 6 6 6 6 6 7 7 6 7 7
3 4 2 4 5 4 5 5 3 4 6 3 3 4 6 11 9 8 6 5 3 3 2 2 2 3 3 3 4 4 5 5 5 5 6 5 5 5 4 4 5 5 5 5 5 5 5 5 5
4 3 5 5 6 6 6 6 6 5 4 4 6 7 10 11 9 8 7 5 3 2 1 1 1 2 2 3 3 3 4 4 4 4 5 5 4 3 3 3 4 3 3 3 4 3 3 2 2
4 4 2 2 5 7 7 5 4 8 3 4 9 12 11 9 8 7 6 5 4 2 2 1 1 1 1 1 2 2 3 3 3 3 4 4 3 2 2 2 2 2 2 2 2 2 2 1 1
3 1 2 3 6 7 7 6 5 4 4 7 11 13 11 10 8 8 7 5 4 3 2 1 1 1 1 1 1 1 1 2 2 2 3 3 1 1 1 1 1 1 1 1 1 1 1 1 1
2 1 2 5 7 7 7 6 5 3 8 11 11 11 10 9 7 5 5 5 4 4 3 2 2 2 1 1 1 1 2 2 2 2 2 3 2 1 1 1 1 1 1 1 1 1 1 1 1
2 4 5 6 7 5 7 5 5 5 10 11 11 9 9 9 8 6 6 5 5 4 4 3 2 2 2 1 1 1 2 3 3 3 3 3 3 2 1 1 1 0 1 1 1 1 1 0 1
5 6 7 4 4 4 7 3 2 8 11 11 10 9 8 8 7 8 8 7 6 5 4 3 4 3 2 2 1 1 2 4 3 3 3 3 3 3 2 1 1 1 1 1 1 1 1 1 1
5 5 3 1 3 4 6 3 4 10 11 10 9 8 8 7 8 7 8 7 6 5 4 4 4 4 3 2 2 1 2 3 3 3 2 3 3 4 3 2 1 1 1 2 1 1 1 1 1
4 2 2 2 3 4 4 4 5 10 11 10 9 8 7 7 6 6 7 7 7 6 5 4 3 4 3 2 2 2 2 2 2 2 2 2 3 4 3 2 1 2 2 1 1 1 1 1 0
4 3 3 5 4 5 4 4 7 10 11 10 9 8 8 8 9 7 7 7 6 6 5 4 3 3 3 2 2 2 2 1 1 1 2 2 3 3 3 2 2 2 2 1 2 2 1 1 1
6 4 4 4 3 5 5 5 8 11 11 10 10 10 10 9 7 7 7 6 6 5 5 4 4 3 3 2 2 2 1 1 0 1 2 3 3 3 3 2 2 2 2 2 3 2 1 1 1
5 3 3 2 2 4 3 4 6 11 13 12 12 12 11 8 6 7 7 6 6 6 5 5 4 4 4 2 2 2 2 1 1 0 0 2 3 3 3 3 3 2 2 2 2 2 1 1 1
4 6 6 4 2 3 3 3 4 6 7 8 9 9 10 12 12 10 9 8 7 7 7 7 6 5 4 4 2 2 2 2 1 1 0 0 2 3 3 3 3 2 3 2 2 3 3 2 1
5 6 7 6 5 1 2 3 6 6 7 10 11 10 11 11 10 10 10 10 9 9 8 7 6 5 4 4 4 4 3 2 1 1 1 0 1 2 2 3 3 2 2 2 2 2 2 3 2
6 2 4 4 5 2 1 2 7 2 6 11 13 14 13 12 12 12 12 11 10 9 8 7 6 5 4 4 5 4 3 2 1 1 1 1 1 0 1 2 2 2 2 2 2 2 2 2 2
5 7 8 7 5 0 3 4 7 5 8 8 11 13 13 13 12 11 10 9 8 7 7 7 6 5 5 5 4 4 4 3 3 2 1 0 1 1 0 1 2 2 1 2 2 2 2 2 2
6 7 4 4 3 5 2 3 9 8 7 9 10 12 12 12 13 12 11 11 10 9 8 7 7 6 5 5 5 5 5 5 4 3 2 2 1 0 1 1 1 1 1 1 1 2 2 2 2
6 9 8 6 6 4 1 5 8 6 4 5 6 8 9 11 12 12 12 12 11 11 9 8 8 7 6 6 5 4 4 4 3 3 3 3 2 2 1 1 1 1 1 1 1 1 1 1 2
7 5 7 7 3 1 5 6 8 3 2 1 4 7 9 10 11 11 11 11 11 10 10 10 9 7 6 6 5 4 4 4 4 3 3 2 2 2 1 2 1 1 1 1 1 1 1 1 1
6 9 7 7 6 3 5 5 5 6 5 3 4 6 8 7 9 10 9 10 9 9 8 8 8 8 6 6 6 5 4 4 4 3 3 3 2 1 2 2 1 1 1 1 1 1 1 1 1
5 5 6 6 6 7 4 7 6 8 7 5 5 5 7 7 8 8 8 8 8 7 7 7 7 6 6 6 5 5 4 4 4 4 3 3 2 2 2 2 1 1 1 1 1 1 1 1 1
5 7 8 6 5 5 5 7 4 5 5 4 5 4 5 6 5 6 7 7 7 7 6 7 6 6 6 6 5 5 4 4 4 3 3 3 3 2 3 2 2 2 1 1 1 1 1 1 1
Wind_Direction
154 148 149 133 56 48 21 352 80 75 57 54 73 86 92 75 98 136 43 126 118 111 115 118 118 114 114 111 108 105 105 107 108 108 110 112 112 111 112 113 113 115 117 120 123 125 129 129 129
151 160 170 63 71 56 345 346 80 84 127 121 78 74 73 61 64 104 113 131 116 120 115 121 123 120 118 115 112 110 109 109 109 109 110 112 115 115 116 117 117 119 121 123 126 128 131 131 131
165 191 79 63 77 138 169 122 111 105 107 88 80 64 72 85 104 130 140 128 107 105 113 123 125 125 121 119 116 115 113 112 111 111 111 112 115 117 119 119 120 122 123 123 127 129 133 133 132
159 61 55 63 49 217 160 151 127 116 75 55 85 69 62 60 123 130 122 122 114 101 110 122 127 126 124 121 121 120 117 116 115 113 114 115 116 117 119 120 120 122 123 122 124 127 132 135 135
80 75 56 46 24 37 111 141 126 98 80 68 79 82 52 24 89 111 119 121 118 97 100 118 124 129 129 129 127 125 125 123 121 119 119 120 119 120 121 122 122 121 120 119 125 128 131 137 139
65 67 68 53 40 58 96 111 100 92 93 86 82 86 49 60 98 115 115 112 107 105 102 120 129 131 131 133 133 134 134 131 130 127 122 123 123 124 123 124 124 122 119 119 123 129 130 135 141
105 89 105 123 93 99 147 111 111 114 103 102 107 93 87 97 110 113 106 100 91 87 85 89 112 123 129 133 139 141 138 134 133 131 128 125 127 128 128 127 128 126 123 121 122 126 131 137 143
139 99 86 124 141 162 146 113 108 113 102 111 106 125 161 155 119 101 91 87 83 77 67 65 83 94 109 123 132 137 138 135 134 138 135 128 120 117 121 125 131 131 127 127 127 126 126 132 141
121 78 169 190 169 169 147 124 118 82 103 88 82 125 137 130 120 107 96 85 89 96 59 60 69 85 94 111 119 119 129 134 129 130 125 106 95 98 111 124 131 130 128 126 122 119 119 128 135
110 142 216 198 165 152 147 135 140 109 99 80 81 95 118 128 131 129 132 140 150 151 114 74 77 78 88 109 93 82 87 92 95 98 103 101 98 99 111 115 127 125 118 115 112 106 98 103 112
155 187 212 158 143 133 132 126 116 127 149 171 149 143 141 142 144 150 157 162 173 171 158 131 130 104 100 95 99 87 90 91 91 101 113 109 96 86 79 70 67 65 76 62 76 86 89 90 91
153 232 156 135 122 126 134 124 114 150 185 151 146 147 148 155 164 172 172 173 166 159 179 173 146 126 131 129 118 125 137 138 142 143 139 129 117 93 88 76 78 74 105 76 74 82 65 73 77
110 72 82 106 98 112 111 115 121 115 122 125 134 144 155 166 174 181 176 167 162 172 185 187 161 160 155 132 178 164 185 182 178 176 169 158 153 148 144 135 121 149 124 103 100 106 95 73 73
102 86 80 86 93 102 112 101 101 139 135 136 147 160 171 177 178 173 171 174 180 187 193 186 172 175 156 156 180 194 190 186 180 185 186 173 171 172 169 165 163 206 167 150 146 141 124 101 95
82 75 52 58 84 112 108 79 155 155 146 152 165 171 177 185 183 183 183 182 183 184 184 181 182 165 158 167 167 169 179 172 174 188 190 178 171 175 174 171 177 210 159 120 100 85 80 72 85
63 70 77 270 107 131 122 198 183 158 156 168 176 179 183 193 195 191 182 180 175 169 169 186 182 159 161 149 133 126 145 156 173 184 184 184 177 173 164 151 169 190 137 111 104 84 73 56 65
49 119 181 223 181 154 159 213 180 167 168 178 185 189 190 196 201 196 184 180 174 172 169 174 169 160 161 141 121 108 111 137 167 173 182 189 185 176 159 152 164 156 122 117 140 107 121 117 105
191 179 196 212 208 163 183 212 179 177 181 188 192 196 197 200 204 193 185 179 174 169 167 165 163 159 140 113 95 80 77 88 118 155 187 191 191 177 162 152 153 147 133 141 144 141 130 155 171
161 172 211 232 199 162 201 214 192 183 190 197 199 201 204 207 199 183 181 176 169 167 166 165 162 163 137 119 122 120 133 116 104 190 199 187 177 167 159 151 143 152 164 177 171 151 141 149 131
157 187 216 252 178 154 190 235 209 194 201 202 201 203 204 200 188 185 182 178 176 173 174 171 177 169 162 161 152 154 148 150 165 190 217 192 172 168 172 159 163 165 162 155 156 145 145 161 138
197 193 196 183 81 66 89 318 228 221 211 209 207 204 202 198 195 192 187 186 180 183 184 192 191 178 177 163 129 101 75 60 60 47 311 235 173 174 165 162 168 173 168 175 180 170 168 178 184
244 218 181 157 128 239 148 256 268 226 221 216 210 202 204 201 194 191 191 190 192 195 187 189 186 183 184 168 157 149 145 157 194 197 213 56 134 167 175 170 173 176 169 177 191 180 176 164 191
214 158 138 134 128 76 37 185 283 230 230 231 218 207 204 197 193 191 194 195 196 191 185 189 182 185 188 181 170 159 155 165 153 117 106 61 38 95 178 172 167 174 180 190 189 173 179 178 184
138 77 58 52 74 255 228 179 272 228 221 229 220 210 201 194 193 192 190 187 190 185 184 182 180 192 189 185 178 172 172 162 145 141 142 83 34 29 36 152 153 170 181 192 197 192 185 187 184
109 101 52 14 12 250 232 198 250 248 226 223 218 208 198 192 190 187 184 184 188 187 187 182 182 193 187 185 187 184 181 170 168 172 177 164 144 140 257 156 151 158 181 191 174 173 196 194 192
171 145 159 184 211 259 265 232 255 264 249 225 209 195 185 187 189 188 188 188 191 190 187 184 186 193 185 183 186 183 175 171 178 179 174 176 190 206 189 160 153 156 167 178 158 161 200 197 207
143 167 161 134 136 157 269 280 299 288 308 229 177 175 187 190 186 185 185 187 188 188 189 186 185 188 186 184 179 175 172 173 177 172 167 172 184 187 164 153 142 147 155 162 154 175 211 179 198
145 143 108 124 146 212 274 271 256 270 254 234 194 187 193 183 180 180 182 185 185 186 185 180 182 187 185 178 181 181 176 178 170 158 163 171 178 165 139 139 141 134 155 158 144 170 200 162 227
117 108 112 118 148 157 220 262 232 226 224 209 205 187 176 173 175 173 177 180 176 175 173 173 176 177 180 178 173 168 169 169 160 164 178 179 170 162 158 160 160 167 199 195 172 204 197 191 259
152 158 147 151 191 169 174 255 278 222 221 191 180 171 161 159 154 157 162 159 160 163 165 170 171 176 183 178 166 166 163 159 163 173 179 172 173 176 176 172 175 190 195 191 185 217 225 210 229
Height
1482 1482 1484 1486 1489 1498 1502 1496 1491 1491 1492 1492 1492 1493 1496 1499 1502 1507 1504 1502 1502 1503 1503 1503 1504 1504 1505 1505 1506 1506 1506 1507 1508 1509 1510 1511 1512 1513 1514 1515 1517 1518 1519 1520 1522 1523 1525 1527 1530
1483 1484 1486 1487 1496 1510 1506 1494 1493 1492 1493 1493 1494 1496 1497 1499 1500 1502 1502 1503 1504 1504 1504 1505 1505 1506 1507 1508 1508 1509 1510 1510 1511 1512 1513 1514 1515 1516 1517 1518 1520 1521 1522 1523 1524 1525 1526 1529 1532
1484 1485 1488 1490 1500 1508 1503 1495 1493 1493 1494 1494 1496 1498 1499 1501 1502 1503 1504 1504 1505 1506 1506 1507 1507 1508 1509 1510 1511 1512 1513 1513 1514 1515 1516 1517 1518 1519 1520 1521 1522 1523 1524 1524 1525 1526 1528 1530 1533
1485 1488 1489 1495 1501 1497 1495 1494 1493 1494 1495 1496 1497 1500 1502 1504 1504 1505 1506 1506 1507 1508 1509 1509 1509 1510 1512 1513 1514 1515 1515 1516 1517 1518 1519 1519 1520 1521 1523 1524 1525 1526 1526 1527 1528 1529 1531 1533 1535
1487 1488 1495 1502 1499 1494 1493 1493 1494 1495 1496 1498 1499 1502 1505 1506 1506 1507 1507 1508 1509 1510 1511 1511 1512 1513 1514 1515 1516 1517 1518 1518 1519 1520 1521 1522 1523 1524 1525 1526 1527 1528 1529 1529 1530 1532 1533 1535 1536
1488 1490 1503 1508 1501 1496 1495 1495 1496 1497 1498 1500 1501 1504 1507 1508 1508 1509 1510 1511 1512 1513 1513 1514 1515 1516 1516 1517 1518 1519 1520 1521 1521 1522 1523 1524 1525 1526 1527 1528 1529 1530 1531 1532 1533 1534 1535 1536 1538
1490 1494 1502 1503 1502 1499 1497 1496 1497 1498 1500 1502 1503 1505 1508 1509 1510 1511 1512 1513 1514 1515 1516 1516 1517 1518 1519 1520 1520 1521 1522 1523 1524 1524 1525 1526 1527 1528 1529 1530 1531 1532 1532 1533 1534 1535 1536 1538 1539
1489 1494 1500 1502 1502 1500 1496 1497 1499 1499 1501 1503 1504 1506 1508 1511 1512 1513 1514 1515 1516 1517 1518 1519 1519 1520 1521 1522 1522 1523 1524 1524 1525 1526 1527 1528 1529 1530 1530 1531 1532 1533 1534 1535 1536 1537 1538 1539 1540
1489 1498 1504 1500 1499 1498 1496 1498 1501 1501 1502 1504 1505 1507 1509 1511 1513 1514 1515 1517 1518 1519 1520 1520 1521 1522 1522 1523 1524 1524 1524 1526 1527 1528 1528 1529 1530 1531 1532 1533 1533 1534 1535 1536 1537 1538 1539 1540 1541
1490 1501 1497 1490 1490 1493 1495 1497 1500 1502 1504 1505 1507 1508 1510 1512 1514 1515 1516 1518 1519 1520 1521 1522 1523 1524 1524 1525 1525 1526 1526 1527 1528 1529 1530 1531 1531 1532 1533 1534 1535 1536 1536 1537 1538 1539 1540 1541 1542
1489 1493 1489 1487 1488 1491 1495 1498 1500 1503 1506 1506 1507 1509 1511 1514 1515 1517 1518 1519 1520 1521 1522 1524 1524 1525 1526 1526 1527 1527 1528 1529 1529 1530 1531 1532 1533 1534 1535 1535 1536 1537 1538 1538 1539 1540 1541 1542 1542
1488 1487 1487 1487 1489 1492 1496 1499 1502 1503 1504 1505 1508 1510 1512 1514 1516 1518 1519 1520 1521 1523 1524 1525 1526 1526 1527 1527 1527 1528 1528 1529 1530 1531 1532 1533 1534 1535 1535 1536 1537 1538 1539 1539 1540 1541 1541 1542 1542
1487 1488 1487 1489 1491 1494 1497 1500 1502 1504 1505 1507 1510 1512 1514 1515 1517 1519 1520 1521 1522 1524 1525 1526 1527 1527 1528 1528 1527 1527 1528 1529 1531 1532 1533 1534 1535 1536 1536 1537 1538 1539 1539 1540 1541 1541 1542 1543 1542
1487 1488 1490 1492 1493 1497 1499 1502 1503 1506 1506 1508 1511 1513 1514 1516 1517 1519 1520 1522 1523 1524 1526 1527 1528 1528 1529 1528 1528 1527 1527 1529 1531 1533 1534 1535 1536 1536 1537 1538 1539 1539 1540 1541 1542 1542 1543 1543 1543
1488 1492 1494 1495 1496 1499 1501 1506 1505 1505 1507 1509 1511 1513 1515 1516 1517 1518 1520 1522 1524 1525 1526 1528 1528 1529 1529 1529 1529 1528 1528 1529 1531 1533 1535 1535 1536 1537 1538 1539 1539 1540 1541 1541 1542 1543 1543 1544 1544
1491 1499 1505 1499 1497 1499 1505 1512 1505 1506 1508 1510 1511 1513 1515 1516 1517 1518 1520 1522 1524 1525 1527 1528 1529 1530 1530 1530 1530 1530 1531 1532 1533 1534 1535 1536 1537 1538 1538 1539 1540 1541 1541 1542 1542 1543 1543 1544 1544
1502 1509 1508 1502 1497 1498 1503 1508 1504 1505 1507 1509 1511 1513 1514 1516 1517 1519 1520 1522 1524 1525 1527 1528 1529 1530 1531 1531 1532 1532 1533 1534 1535 1536 1536 1537 1538 1538 1539 1539 1540 1541 1541 1542 1542 1543 1543 1544 1544
1507 1507 1506 1505 1498 1499 1503 1504 1502 1504 1506 1507 1509 1511 1513 1514 1516 1518 1520 1522 1524 1525 1527 1528 1530 1531 1532 1533 1533 1534 1534 1535 1536 1537 1537 1538 1538 1539 1539 1540 1540 1541 1541 1542 1543 1543 1544 1544 1545
1495 1501 1505 1501 1494 1498 1502 1503 1502 1502 1505 1506 1507 1508 1510 1512 1515 1517 1519 1521 1523 1525 1526 1528 1529 1531 1532 1533 1533 1534 1534 1535 1536 1537 1538 1538 1539 1539 1539 1540 1540 1541 1541 1542 1543 1543 1544 1544 1545
1494 1501 1502 1498 1493 1497 1502 1503 1500 1500 1500 1501 1503 1506 1508 1511 1513 1516 1518 1520 1522 1524 1526 1528 1529 1530 1531 1532 1533 1534 1535 1535 1537 1537 1538 1539 1539 1539 1539 1540 1540 1541 1541 1541 1542 1543 1543 1544 1544
1493 1498 1499 1500 1497 1498 1503 1507 1502 1498 1499 1501 1502 1503 1505 1507 1510 1513 1516 1518 1520 1522 1524 1527 1528 1529 1531 1532 1533 1534 1534 1535 1536 1537 1537 1538 1538 1539 1539 1539 1540 1540 1540 1541 1541 1542 1542 1543 1543
1496 1487 1489 1495 1505 1513 1508 1522 1504 1499 1498 1497 1498 1500 1502 1505 1507 1510 1513 1515 1518 1520 1523 1525 1527 1529 1530 1531 1532 1533 1533 1534 1535 1536 1537 1538 1538 1538 1539 1539 1539 1539 1540 1540 1540 1541 1541 1542 1542
1485 1482 1487 1494 1505 1514 1513 1520 1511 1500 1500 1494 1492 1494 1497 1501 1504 1507 1510 1512 1515 1519 1521 1523 1525 1527 1529 1530 1531 1532 1533 1534 1535 1535 1536 1536 1537 1538 1538 1538 1538 1539 1539 1539 1540 1540 1540 1540 1541
1479 1487 1495 1504 1512 1525 1516 1521 1514 1502 1493 1487 1486 1489 1492 1496 1500 1504 1507 1510 1514 1516 1519 1521 1523 1525 1527 1529 1530 1531 1532 1532 1533 1534 1535 1535 1536 1537 1537 1538 1538 1538 1538 1539 1539 1539 1539 1539 1540
1481 1500 1522 1525 1533 1529 1515 1517 1509 1487 1482 1481 1482 1484 1487 1492 1496 1500 1503 1507 1510 1513 1516 1519 1521 1523 1525 1527 1528 1529 1530 1531 1532 1532 1533 1534 1535 1535 1536 1536 1537 1537 1537 1537 1538 1538 1538 1538 1538
1484 1494 1518 1531 1534 1528 1516 1516 1496 1480 1478 1478 1478 1481 1484 1488 1492 1496 1500 1504 1507 1510 1513 1516 1519 1521 1523 1525 1526 1528 1529 1530 1531 1531 1532 1533 1533 1534 1535 1535 1535 1535 1536 1536 1536 1536 1536 1536 1536
1484 1492 1493 1513 1522 1527 1521 1509 1491 1478 1477 1476 1477 1479 1481 1484 1488 1492 1496 1500 1504 1507 1510 1513 1516 1518 1520 1522 1524 1526 1527 1528 1529 1530 1531 1531 1532 1533 1533 1533 1533 1534 1534 1534 1535 1535 1535 1534 1534
1473 1484 1501 1514 1529 1531 1519 1512 1503 1484 1479 1476 1476 1477 1478 1482 1485 1489 1494 1497 1501 1504 1508 1511 1513 1516 1518 1520 1522 1524 1525 1527 1528 1529 1529 1530 1531 1531 1531 1532 1532 1532 1532 1532 1533 1533 1533 1533 1533
1479 1486 1496 1509 1511 1525 1529 1514 1482 1479 1475 1475 1475 1475 1477 1480 1483 1487 1491 1495 1499 1502 1505 1508 1510 1513 1516 1518 1520 1522 1523 1525 1526 1527 1527 1528 1529 1529 1530 1530 1531 1531 1531 1531 1531 1532 1532 1531 1531
1468 1478 1489 1502 1511 1514 1518 1507 1472 1473 1472 1472 1474 1475 1477 1479 1482 1486 1490 1494 1497 1500 1503 1505 1508 1510 1513 1516 1518 1520 1521 1523 1523 1524 1525 1527 1527 1528 1528 1528 1529 1529 1529 1529 1530 1530 1530 1530 1529